When you browse on this site, cookies collect data to enhance your experience and personalize the content and advertising you see.
Visit our Privacy Policy to learn more. By continuing to use the site, you agree to this use of cookies and data.
  • En España
  • Lista de países
  • Para 7 días
  • Temperatura del agua
  • Mapa Satelital
  • El tiempo en el mapa
  • Informadores
  • user-avatar
    Iniciar sesión

    Tiempo cada hora Hasselt

    Hoy, 13 Diciembre, Jueves

    Tiempo Temperatura Precipitaciones Viento Presión Humedad
    00:00 -1°C° 0 mm 4 mps 763 mmHg 89%
    01:00 0°C° 0 mm 3 mps 763 mmHg 89%
    02:00 0°C° 0 mm 3 mps 762 mmHg 90%
    03:00 0°C° 0 mm 3 mps 762 mmHg 91%
    04:00 0°C° 0 mm 3 mps 762 mmHg 91%
    05:00 0°C° 0 mm 3 mps 762 mmHg 91%
    06:00 -2°C° 0 mm 4 mps 762 mmHg 90%
    07:00 -1°C° 0 mm 4 mps 761 mmHg 87%
    08:00 -1°C° 0 mm 4 mps 761 mmHg 84%
    09:00 -1°C° 0 mm 4 mps 761 mmHg 81%
    10:00 0°C° 0 mm 4 mps 761 mmHg 75%
    11:00 0°C° 0 mm 5 mps 761 mmHg 69%
    12:00 +1°C° 0 mm 5 mps 761 mmHg 62%
    13:00 +1°C° 0 mm 5 mps 761 mmHg 63%
    14:00 0°C° 0 mm 4 mps 761 mmHg 64%
    15:00 0°C° 0 mm 4 mps 760 mmHg 65%
    16:00 -1°C° 0 mm 4 mps 761 mmHg 68%
    17:00 -1°C° 0 mm 4 mps 761 mmHg 72%
    18:00 -2°C° 0 mm 4 mps 761 mmHg 75%
    19:00 -2°C° 0 mm 4 mps 761 mmHg 77%
    20:00 -1°C° 0 mm 3 mps 761 mmHg 79%
    21:00 -1°C° 0 mm 3 mps 762 mmHg 81%
    22:00 -2°C° 0 mm 3 mps 762 mmHg 82%
    23:00 -2°C° 0 mm 3 mps 762 mmHg 83%

    Mañana, 14 Diciembre, Viernes

    Tiempo Temperatura Precipitaciones Viento Presión Humedad
    00:00 -2°C° 0 mm 3 mps 762 mmHg 85%
    01:00 -2°C° 0 mm 3 mps 762 mmHg 85%
    02:00 -2°C° 0 mm 3 mps 762 mmHg 85%
    03:00 -2°C° 0 mm 3 mps 762 mmHg 86%
    04:00 -2°C° 0 mm 3 mps 762 mmHg 86%
    05:00 -2°C° 0 mm 3 mps 763 mmHg 87%
    06:00 -2°C° 0 mm 3 mps 763 mmHg 88%
    07:00 -2°C° 0 mm 3 mps 763 mmHg 86%
    08:00 -2°C° 0 mm 3 mps 763 mmHg 84%
    09:00 -1°C° 0 mm 3 mps 763 mmHg 82%
    10:00 -1°C° 0 mm 3 mps 763 mmHg 78%
    11:00 0°C° 0 mm 3 mps 763 mmHg 73%
    12:00 +1°C° 0 mm 3 mps 763 mmHg 69%
    13:00 +1°C° 0 mm 3 mps 763 mmHg 71%
    14:00 +1°C° 0 mm 2 mps 763 mmHg 72%
    15:00 +1°C° 0 mm 2 mps 763 mmHg 74%
    16:00 -1°C° 0 mm 2 mps 764 mmHg 77%
    17:00 -2°C° 0 mm 2 mps 764 mmHg 80%
    18:00 -2°C° 0 mm 2 mps 765 mmHg 83%
    19:00 -2°C° 0 mm 2 mps 765 mmHg 83%
    20:00 -2°C° 0 mm 2 mps 765 mmHg 83%
    21:00 -2°C° 0 mm 2 mps 765 mmHg 83%
    22:00 -3°C° 0 mm 2 mps 765 mmHg 82%
    23:00 -3°C° 0 mm 2 mps 765 mmHg 82%

    Pasado mañana, 15 Diciembre, Sábado

    Tiempo Temperatura Precipitaciones Viento Presión Humedad
    00:00 -1°C° 0 mm 1 mps 765 mmHg 82%
    01:00 -1°C° 0 mm 1 mps 765 mmHg 82%
    02:00 -1°C° 0 mm 1 mps 765 mmHg 81%
    03:00 -1°C° 0 mm 1 mps 764 mmHg 81%
    04:00 -3°C° 0 mm 2 mps 764 mmHg 81%
    05:00 -3°C° 0 mm 2 mps 764 mmHg 81%
    06:00 -3°C° 0 mm 2 mps 764 mmHg 81%
    07:00 -3°C° 0 mm 2 mps 764 mmHg 78%
    08:00 -2°C° 0 mm 3 mps 764 mmHg 75%
    09:00 -2°C° 0 mm 3 mps 764 mmHg 72%
    10:00 -1°C° 0 mm 3 mps 763 mmHg 67%
    11:00 -1°C° 0 mm 4 mps 763 mmHg 61%
    12:00 +1°C° 0 mm 4 mps 763 mmHg 56%
    13:00 0°C° 0 mm 4 mps 762 mmHg 57%
    14:00 0°C° 0 mm 4 mps 761 mmHg 59%
    15:00 0°C° 0 mm 4 mps 761 mmHg 60%
    16:00 0°C° 0 mm 5 mps 760 mmHg 59%
    17:00 0°C° 0 mm 5 mps 760 mmHg 59%
    18:00 -1°C° 0 mm 6 mps 759 mmHg 58%
    19:00 -1°C° 0.2 mm 6 mps 758 mmHg 59%
    20:00 -1°C° 0.2 mm 6 mps 758 mmHg 61%
    21:00 -1°C° 0.2 mm 7 mps 757 mmHg 62%
    22:00 -1°C° 1.1 mm 7 mps 756 mmHg 68%
    23:00 0°C° 1.1 mm 7 mps 755 mmHg 73%

    16 Diciembre, Domingo

    Tiempo Temperatura Precipitaciones Viento Presión Humedad
    00:00 0°C° 1.1 mm 7 mps 755 mmHg 79%
    01:00 +1°C° 1.5 mm 6 mps 754 mmHg 82%
    02:00 +1°C° 1.5 mm 6 mps 754 mmHg 85%
    03:00 +1°C° 1.5 mm 5 mps 754 mmHg 88%
    04:00 +1°C° 0.1 mm 5 mps 754 mmHg 89%
    05:00 +1°C° 0.1 mm 4 mps 754 mmHg 90%
    06:00 +1°C° 0.1 mm 4 mps 754 mmHg 92%
    07:00 +2°C° 0 mm 3 mps 754 mmHg 92%
    08:00 +2°C° 0 mm 3 mps 755 mmHg 93%
    09:00 +2°C° 0 mm 3 mps 755 mmHg 94%
    10:00 +3°C° 0 mm 3 mps 755 mmHg 92%
    11:00 +4°C° 0 mm 3 mps 755 mmHg 91%
    12:00 +5°C° 0 mm 3 mps 755 mmHg 89%
    13:00 +4°C° 0 mm 3 mps 755 mmHg 91%
    14:00 +5°C° 0 mm 2 mps 756 mmHg 93%
    15:00 +4°C° 0 mm 2 mps 756 mmHg 94%
    16:00 +4°C° 0 mm 2 mps 756 mmHg 94%
    17:00 +3°C° 0 mm 2 mps 756 mmHg 95%
    18:00 +2°C° 0 mm 3 mps 757 mmHg 95%
    19:00 +2°C° 0 mm 3 mps 757 mmHg 95%
    20:00 +2°C° 0 mm 3 mps 757 mmHg 94%
    21:00 +2°C° 0 mm 3 mps 758 mmHg 94%
    22:00 +2°C° 0 mm 3 mps 758 mmHg 94%
    23:00 +2°C° 0 mm 3 mps 757 mmHg 94%

    17 Diciembre, Lunes

    Tiempo Temperatura Precipitaciones Viento Presión Humedad
    00:00 +2°C° 0 mm 3 mps 757 mmHg 94%
    01:00 +2°C° 0 mm 3 mps 757 mmHg 94%
    02:00 +2°C° 0 mm 3 mps 757 mmHg 93%
    03:00 +2°C° 0 mm 3 mps 757 mmHg 93%
    04:00 +2°C° 0.3 mm 3 mps 757 mmHg 93%
    05:00 +2°C° 0.3 mm 3 mps 757 mmHg 94%
    06:00 +3°C° 0.3 mm 2 mps 757 mmHg 94%
    07:00 +3°C° 0.3 mm 2 mps 758 mmHg 94%
    08:00 +4°C° 0.3 mm 2 mps 758 mmHg 94%
    09:00 +3°C° 0.3 mm 3 mps 759 mmHg 94%
    10:00 +4°C° 0 mm 3 mps 759 mmHg 92%
    11:00 +4°C° 0 mm 3 mps 759 mmHg 89%
    12:00 +5°C° 0 mm 3 mps 760 mmHg 87%
    13:00 +5°C° 0 mm 3 mps 760 mmHg 88%
    14:00 +4°C° 0 mm 3 mps 760 mmHg 89%
    15:00 +4°C° 0 mm 3 mps 761 mmHg 91%
    16:00 +4°C° 0 mm 3 mps 761 mmHg 92%
    17:00 +3°C° 0 mm 3 mps 762 mmHg 93%
    18:00 +3°C° 0 mm 3 mps 762 mmHg 94%
    19:00 +3°C° 0 mm 3 mps 763 mmHg 94%
    20:00 +3°C° 0 mm 3 mps 763 mmHg 94%
    21:00 +2°C° 0 mm 3 mps 763 mmHg 95%
    22:00 +2°C° 0 mm 3 mps 763 mmHg 94%
    23:00 +2°C° 0 mm 3 mps 763 mmHg 94%

    18 Diciembre, Martes

    Tiempo Temperatura Precipitaciones Viento Presión Humedad
    00:00 +2°C° 0 mm 3 mps 764 mmHg 94%
    01:00 +2°C° 0 mm 3 mps 763 mmHg 94%
    02:00 +2°C° 0 mm 3 mps 763 mmHg 94%
    03:00 +1°C° 0 mm 3 mps 763 mmHg 94%
    04:00 +2°C° 0 mm 3 mps 763 mmHg 94%
    05:00 +2°C° 0 mm 3 mps 763 mmHg 94%
    06:00 +2°C° 0 mm 3 mps 763 mmHg 94%
    07:00 +1°C° 0 mm 4 mps 763 mmHg 92%
    08:00 +3°C° 0 mm 4 mps 762 mmHg 91%
    09:00 +3°C° 0 mm 4 mps 762 mmHg 90%
    10:00 +4°C° 0 mm 4 mps 761 mmHg 87%
    11:00 +5°C° 0 mm 5 mps 761 mmHg 83%
    12:00 +6°C° 0 mm 5 mps 760 mmHg 80%
    13:00 +5°C° 0 mm 5 mps 759 mmHg 81%
    14:00 +5°C° 0 mm 4 mps 759 mmHg 82%
    15:00 +4°C° 0 mm 4 mps 758 mmHg 83%
    16:00 +3°C° 0 mm 5 mps 757 mmHg 81%
    17:00 +2°C° 0 mm 5 mps 757 mmHg 79%
    18:00 +2°C° 0 mm 5 mps 756 mmHg 77%
    19:00 +2°C° 0 mm 5 mps 756 mmHg 74%
    20:00 +2°C° 0 mm 5 mps 755 mmHg 70%
    21:00 +2°C° 0 mm 6 mps 755 mmHg 67%
    22:00 +3°C° 0 mm 6 mps 754 mmHg 67%
    23:00 +3°C° 0 mm 6 mps 753 mmHg 68%
    Mostrar más